Weather History for York, PA

Change the Weather History Date:

Friday, February 15, 2013

  Actual Average Record
Temperature  
Mean Temperature 40 °F -  
Max Temperature 52 °F 0 °F 55 °F (2006)
Min Temperature 27 °F - 12 °F (2006)
Degree Days  
Heating Degree Days 26    
Moisture  
Dew Point 30 °F    
Average Humidity 75    
Maximum Humidity 96    
Minimum Humidity 43    
Precipitation  
Precipitation 0.27 in - - ()
Sea Level Pressure  
Sea Level Pressure 29.99 in    
Wind  
Wind Speed 5 mph (WNW)    
Max Wind Speed 15 mph    
Max Gust Speed 24 mph    
Visibility 7 miles    
Events Rain , Snow    
Averages and records for this station are not official NWS values.
T = Trace of Precipitation, MM = Missing Value Source: NWS Daily Summary

Daily Weather History Graph

Daily Weather History Graph

Search for Another Location

Airport:

Trip Planner

Search our weather history database for the weather conditions in past years. The results will help you decide how hot, cold, wet, or windy it might be!

Date:

Astronomy

Feb. 15, 2013 Rise Set
Actual Time 6:59 AM EST 5:43 PM EST
Civil Twilight 6:32 AM EST 6:11 PM EST
Nautical Twilight 6:00 AM EST 6:43 PM EST
Astronomical Twilight 5:29 AM EST 7:14 PM EST
Moon 9:35 AM EST (2/15) 11:42 PM EST (2/15)
Length of Visible Light 11h 39m
Length of Day
10h 43m
Waxing Crescent, 30% of the Moon is Illuminated
Feb 15
Waxing Crescent
Feb 17
First Quarter
Feb 25
Full
Mar 4
Last Quarter
Mar 11
New

Hourly Weather History & Observations

Time (EST) Temp. Windchill Dew Point Humidity Pressure Visibility Wind Dir Wind Speed Gust Speed Precip Events Conditions
12:53 AM 37.9 °F 32.1 °F 25.0 °F 60% 29.98 in 10.0 mi South 8.1 mph - N/A   Clear
1:53 AM 37.0 °F - 27.0 °F 67% 29.98 in 10.0 mi Calm Calm - N/A   Clear
2:53 AM 35.1 °F - 28.0 °F 76% 29.98 in 10.0 mi Calm Calm - N/A   Partly Cloudy
3:53 AM 34.0 °F 31.0 °F 28.0 °F 79% 29.97 in 10.0 mi SE 3.5 mph - N/A   Clear
4:53 AM 34.0 °F - 27.0 °F 75% 29.99 in 10.0 mi Calm Calm - N/A   Clear
5:53 AM 27.0 °F - 25.0 °F 92% 30.00 in 7.0 mi Calm Calm - N/A   Clear
7:53 AM 28.9 °F - 26.1 °F 89% 30.03 in 6.0 mi Calm Calm - N/A   Clear
8:53 AM 36.0 °F - 30.0 °F 79% 30.03 in 9.0 mi Calm Calm - N/A   Clear
9:53 AM 42.1 °F - 30.9 °F 65% 30.03 in 10.0 mi Calm Calm - N/A   Clear
10:53 AM 48.9 °F - 30.9 °F 50% 30.01 in 10.0 mi West 9.2 mph - N/A   Clear
11:53 AM 51.1 °F - 30.9 °F 46% 29.99 in 10.0 mi West 10.4 mph 19.6 mph N/A   Clear
12:53 PM 52.0 °F - 30.9 °F 45% 29.97 in 10.0 mi Variable 6.9 mph 18.4 mph N/A   Scattered Clouds
1:53 PM 52.0 °F - 30.0 °F 43% 29.96 in 10.0 mi WSW 10.4 mph - N/A   Scattered Clouds
2:53 PM 50.0 °F - 28.9 °F 44% 29.95 in 10.0 mi WNW 10.4 mph - N/A   Overcast
3:53 PM 48.9 °F - 28.9 °F 46% 29.94 in 10.0 mi West 5.8 mph - N/A   Overcast
4:53 PM 45.0 °F 38.2 °F 28.9 °F 53% 29.96 in 10.0 mi WNW 15.0 mph 24.2 mph N/A   Overcast
5:50 PM 39.2 °F 32.0 °F 33.8 °F 81% 29.97 in 5.0 mi WNW 11.5 mph - 0.01 in Rain Rain
5:53 PM 39.9 °F 33.9 °F 34.0 °F 79% 29.99 in 5.0 mi WNW 9.2 mph - 0.02 in Rain Light Rain
6:53 PM 37.9 °F 33.5 °F 35.1 °F 89% 29.99 in 7.0 mi NW 5.8 mph - 0.05 in Rain Light Rain
7:33 PM 37.4 °F 31.4 °F 35.6 °F 93% 29.98 in 5.0 mi NW 8.1 mph - 0.04 in Rain Rain
7:53 PM 37.0 °F 29.8 °F 33.1 °F 86% 30.01 in 4.0 mi NW 10.4 mph 19.6 mph 0.08 in Rain Rain
8:12 PM 35.6 °F 30.7 °F 33.8 °F 93% 30.00 in 6.0 mi NW 5.8 mph - 0.02 in Rain Light Rain
8:27 PM 35.6 °F 31.7 °F 33.8 °F 93% 30.00 in 6.0 mi NW 4.6 mph - 0.04 in Rain Light Rain
8:53 PM 35.1 °F 32.2 °F 32.0 °F 89% 30.02 in 7.0 mi NNW 3.5 mph - 0.06 in Rain Light Rain
9:16 PM 33.8 °F 30.8 °F 30.2 °F 87% 30.01 in 2.5 mi West 3.5 mph - 0.04 in Snow Light Snow
9:37 PM 33.8 °F - 32.0 °F 93% 30.00 in 4.0 mi Calm Calm - 0.06 in Snow Light Snow
9:53 PM 33.1 °F - 30.9 °F 92% 30.02 in 3.0 mi Calm Calm - 0.06 in Snow Light Snow
10:01 PM 33.8 °F - 30.2 °F 87% 30.00 in 4.0 mi Calm Calm - 0.00 in   Overcast
10:53 PM 33.1 °F - 32.0 °F 96% 30.01 in 5.0 mi Calm Calm - 0.00 in   Overcast
11:53 PM 33.1 °F - 32.0 °F 96% 30.01 in 3.0 mi Calm Calm - N/A   Overcast